Regional Weather Roundup
Issued by NWS

Home | Current Version | Previous Version | Text Only | Print | Product List | Glossary Off
Versions: 1 2 3 4 5 6 7 8 9 10 11 12 13 14 15 16 17 18 19 20 21 22 23 24 25 26 27 28 29 30 31 32 33 34 35 36 37 38 39 40 41 42 43 44 45 46 47 48 49 50

000
ASUS43 KFSD 011002
RWRSD

WEATHER ROUNDUP FOR SOUTH DAKOTA
NATIONAL WEATHER SERVICE SIOUX FALLS SD
500 AM CDT SAT OCT 01 2016

NOTE: "FAIR" INDICATES FEW OR NO CLOUDS BELOW 12,000 FEET WITH NO
SIGNIFICANT WEATHER AND/OR OBSTRUCTIONS TO VISIBILITY.


SDZ001>005-009-010-012>017-011100-
NORTHWEST AND NORTH CENTRAL SOUTH DAKOTA

CITY           SKY/WX    TMP DP  RH WIND       PRES   REMARKS
BUFFALO          N/A     54  47  77 CALM      29.94S
FAITH            N/A     54  46  74 SE16      29.98F
MOBRIDGE       MOCLDY    62  45  53 S17       30.01F
$$

SDZ012>016-024>037-041>051-057-063-072>074-011100-
SOUTHWEST AND SOUTH CENTRAL SOUTH DAKOTA

CITY           SKY/WX    TMP DP  RH WIND       PRES   REMARKS
RAPID CTY ARPT CLEAR     49  47  93 CALM      30.01F
PIERRE         CLOUDY    60  44  55 SE16      30.03F
CUSTER         CLEAR     48  42  80 NW3       30.12F
ELLSWORTH AFB  CLEAR     51  48  87 W6        30.00F
PHILIP         CLOUDY    58  49  72 E7        30.00F
PINE RIDGE     CLEAR     55  47  74 CALM      30.05S
WINNER         FAIR      58  45  62 S16       30.08F
$$

SDZ004>011-016>023-039-040-011100-
NORTHEAST SOUTH DAKOTA

CITY           SKY/WX    TMP DP  RH WIND       PRES   REMARKS
ABERDEEN       MOCLDY    52  46  80 SE8       30.12S
WATERTOWN      CLEAR     49  47  93 SE3       30.16S
SISSETON         N/A     45  43  93 S3        30.15F
$$

SDZ017-020-022-023-036>040-048>070-011100-
SOUTHEAST SOUTH DAKOTA

CITY           SKY/WX    TMP DP  RH WIND       PRES   REMARKS
SIOUX FALLS    PTCLDY    47  46  97 CALM      30.16F
HURON          PTCLDY    49  46  90 SE8       30.12F
CHAMBERLAIN    CLOUDY    56  48  76 SE7       30.10S
MITCHELL       PTCLDY    47  44  90 SE6       30.13F
YANKTON        PTCLDY    48  45  87 E3        30.13S
$$

ABBREVIATIONS USED IN REMARKS
   TC - TEMPERATURE IN CELSIUS
  WCI - WIND CHILL INDEX
   HX - HEAT INDEX
  VSB - VISIBILITY




USA.gov is the U.S. government's official web portal to all federal, state and local government web resources and services.